Printer-friendly version

IAU Minor Planet Center

Minor Planet Center

MPEC 2006-O51 : 2005 ST1

The following Minor Planet Electronic Circular may be linked-to from your own Web pages, but must not otherwise be redistributed electronically.


Read MPEC 2006-O50 Read MPEC 2006-O52


M.P.E.C. 2006-O51                                Issued 2006 July 27, 17:38 UT

     The Minor Planet Electronic Circulars contain information on unusual
         minor planets and routine data on comets.  They are published
   on behalf of Commission 20 of the International Astronomical Union by the
          Minor Planet Center, Smithsonian Astrophysical Observatory,
                          Cambridge, MA 02138, U.S.A.

                  Supported in part by the Brinson Foundation
                  Supported in part by the TABASGO Foundation
             Prepared using the Tamkin Foundation Computer Network

                              MPC@CFA.HARVARD.EDU
          URL http://cfa-www.harvard.edu/iau/mpc.html  ISSN 1523-6714

                                   2005 ST1

                           Revision to MPEC 2005-S46

Additional Observations:
     K05S01T  C1991 10 02.15601 23 25 29.89 -09 59 04.6          19.2 V EO051691
     K05S01T  C1991 10 02.17138 23 25 24.58 -09 58 11.1          19.1 V EO051691
     K05S01T  C1991 10 02.18481 23 25 19.91 -09 57 25.1          19.3 V EO051691
     K05S01T  C1998 09 27.27771 00 12 55.51 -08 58 46.1          18.5 R EO051699
     K05S01T  C1998 09 27.30253 00 12 48.20 -08 57 28.1                 EO051699
     K05S01T  C1998 09 27.32738 00 12 40.95 -08 56 10.6                 EO051699
     K05S01T  C1999 03 23.31985 13 07 16.77 -04 14 39.8          19.1 R EO051703
     K05S01T  C1999 03 23.33569 13 07 12.72 -04 15 10.9                 EO051703
     K05S01T  C1999 03 23.35264 13 07 08.41 -04 15 43.3                 EO051703
     K05S01T  C1999 03 23.36863 13 07 04.31 -04 16 16.6          19.1 R EO051703
     K05S01T  C1999 03 23.38525 13 07 00.17 -04 16 52.7          19.1 R EO051703

Observer details:
691 Steward Observatory, Kitt Peak.  Observers T. Gehrels, J. V. Scotti, J. L.
    Montani, J. A. Larsen, R. S. McMillan, A. E. Gleason, M. T. Read, A. F.
    Tubbiolo, A. S. Descour, T. H. Bressi.  0.9-m Spacewatch telescope.
699 Lowell Observatory-LONEOS.  Observers C. A. Onken, B. A. Skiff, W. D.
    Ferris, T. R. Grimstad, O. Matic.  Measurer B. W. Koehn.  0.59-m LONEOS
    Schmidt + CCD.
703 Catalina Sky Survey.  Observers C. W. Hergenrother, T. B. Spahr.
    Measurers C. W. Hergenrother, T. B. Spahr.  0.41-m f/3.0 Schmidt + CCD.

First and last observations above in comparison with prediction:
Residuals in seconds of arc (or two decimals in degrees), reference and Delta-T
911002 691 0.07- 0.07-    990323 703 75.2- 75.0+    MPO102255   +0.00007 day

Orbital elements:
2005 ST1                                                 Earth MOID = 0.1276 AU
Epoch 2006 Sept. 22.0 TT = JDT 2454000.5                MPC
M 159.00389              (2000.0)            P               Q
n   0.56358947     Peri.   80.51408     +0.03940032     -0.99814940
a   1.4515348      Node     7.69528     +0.72596340     -0.00325709
e   0.3709666      Incl.   20.23704     +0.68660379     +0.06072197
P   1.75           H   20.3           G   0.15           U   1
Residuals in seconds of arc
911002 691  0.4-  0.2+    050927 844  2.3-  2.4+    051008 A13  0.9-  0.8+
911002 691  0.1-  0.5+    050927 844  1.4-  1.1+    051009 160  0.3+  0.1-
911002 691  0.2-  0.0     050927 413  0.3+  0.4-    051009 160  0.2+  0.1-
980927 699  2.5+  1.4-    050927 413  0.3+  0.2-    051009 160  0.4+  0.2-
980927 699  1.6+  1.6-    050927 J68  0.8+  0.2+    051009 160  0.2+  0.3-
980927 699  1.8+  2.5-    050928 J68  0.4-  1.6+    051009 160  0.3-  0.0
050914 703  0.3-  0.6-    050928 J77  0.9-  0.4+    051010 240  0.0   0.1-
050914 703  0.3-  0.3-    050928 J68  0.8+  2.8-    051010 240  0.2+  0.3-
050914 703  0.9-  0.1+    050928 J77  1.1-  0.6+    051010 240  0.2+  0.0
050914 703  0.0   0.2-    050928 J77  0.8-  0.5+    051010 240  0.2+  0.2-
050924 703  0.5+  0.2+    050928 J77  0.6-  0.5+    051010 240  0.1+  0.2-
050924 703  0.3+  0.4+    050928 J77  0.2-  0.6+    051010 240  0.0   0.3-
050924 703  0.0   0.3+    050928 J77  0.5-  0.8+    051010 240  0.0   0.4-
050924 703  0.0   0.2+    050929 644  0.1-  0.1-    051010 240  0.2+  0.0
050924 703  0.5-  0.1-    050929 844  0.1-  0.3-    051010 240  0.2+  0.1-
050924 703  0.8-  0.0     050929 844  0.1+  0.7+    051010 240  0.1+  0.1-
050924 703  0.1-  0.2+    050929 844  0.4+  0.4+    051010 A30  0.3+  0.5-
050924 703  2.9+  1.5-    050929 844  0.3-  0.3+    051010 A30  0.1+  0.6-
050924 A13  0.4+  0.4+    050929 844  0.1-  0.2-    051010 A30  0.1+  0.5-
050924 A13  0.3-  0.6+    050929 844  0.2+  0.3+    051010 A30  0.2+  0.4-
050924 A13  0.1-  1.0+    050929 644  0.0   0.1-    051010 A30  0.2+  0.6-
050924 A13  0.2-  0.4+    050929 699  0.0   0.2-    051011 639  0.5+  0.7+
050924 A13  0.4-  0.8+    050929 844  0.3-  0.5+    051011 639  0.1+  0.4+
050925 118  0.3+  0.1+    050929 844  0.3-  0.5-    051011 639  0.8+  0.1+
050925 118  0.6+  0.2-    050929 644  0.0   0.0     051011 639  0.6+  0.1+
050925 118  0.4+  0.2+    050929 699  0.3+  0.4-    051011 639  0.1+  0.8+
050925 118  0.3+  0.2-    050929 699  0.6+  0.1+    051011 639  0.3-  0.5+
050925 118  0.7+  0.4-    050929 699  0.3+  0.2-    051011 639  0.1-  0.8+
050925 932  0.3+  0.2-    050930 108  1.6-  0.5+    051011 639  0.1-  0.0
050925 932  0.4+  0.1-    050930 108  0.3+  0.5-    051013 704  0.2-  0.0
050925 932  0.4+  0.4-    050930 108  0.2-  2.2-    051013 704  0.3+  0.5+
050925 H06  0.5-  1.6-    051001 355  0.7+  0.8-    051013 704  0.3+  1.3+
050925 I77  0.8+  0.3-    051001 355  0.1-  0.7-    051013 704  0.4-  0.3+
050925 H06  0.8+  1.0-    051001 355  0.8+  0.8-    051013 704  0.3-  0.0
050925 H06  0.3+  1.9-    051001 355  0.4+  0.0     051015 160  0.2+  0.6-
050925 I77  0.2-  0.1-    051001 157  0.4-  0.5+    051015 160  0.3+  0.2-
050925 I77  0.1-  0.3-    051001 157  0.1-  0.7-    051015 160  0.6+  0.2-
050925 651  0.4-  0.2+    051001 157  0.3-  0.5-    051015 160  0.1-  0.0
050925 651  0.5-  0.1+    051002 704  0.3+  0.3+    051015 160  0.5+  0.1+
050925 651  0.4-  0.2+    051002 704  0.7+  0.4+    051015 160  0.0   0.4-
050925 673  0.5+  0.2+    051002 704  1.1+  1.3+    051024 448  0.1+  0.3-
050925 673  0.4+  0.1+    051002 704  0.4+  0.3+    051024 448  0.1-  0.2-
050925 703  0.1+  0.1-    051002 J69  1.6+  1.0-    051024 448  0.4-  0.4-
050925 673  0.5+  0.2+    051002 J69  2.3+  2.1-    051024 448  0.1+  0.3-
050925 703  0.7-  0.4-    051002 J69  1.3+  1.5-    051024 448  0.8-  0.0
050925 673  0.4+  0.3+    051004 084  0.2+  0.3-    051106 461  0.1-  0.1-
050925 703  0.1+  0.1+    051004 951  0.1+  0.0     051106 461  0.1-  0.1-
050925 703  0.4-  0.4-    051004 951  0.5+  0.3-    051106 461  0.5-  0.4+
050925 A50  0.5+  0.6-    051004 951  0.2-  0.6+    051106 461  0.4-  0.1+
050925 A50  0.5-  0.2+    051005 639  0.6+  0.3+    060120 291  0.4+  0.5+
050925 A50  0.5+  0.3+    051005 639  0.4+  0.5+    060120 291  0.3-  0.6+
050925 A50  0.2-  0.3-    051005 639  0.8+  0.4+    060120 291  0.3+  0.2+
050925 A50  0.2-  0.3+    051006 084  0.0   0.1-    060219 A13  0.3-  1.0-
050925 J77  0.0   0.1-    051006 084  0.1-  0.1+    060219 A13  0.2-  0.2+
050925 J69  0.7-  0.4+    051006 084  0.2+  0.5+    060305 703  2.3-  1.2-
050925 J69  0.7-  0.4+    051007 703  0.6-  0.1-    060305 703  0.3+  1.2-
050925 J77  0.2+  0.6-    051007 703  0.1-  0.0     060305 703  1.7-  0.8-
050925 J69  0.1-  1.1+    051007 703  0.6-  0.3-    060305 703  1.4-  0.4+
050925 J77  0.0   0.1-    051007 703  0.2+  0.5-    060305 703  0.9-  1.1-
050925 J77  0.1-  0.0     051008 151  0.0   0.1-    060305 703  1.2+  0.6+
050926 J77  0.2-  0.2-    051008 151  0.1+  0.3-    060305 703  0.3-  1.0+
050926 J77  0.1-  0.1-    051008 151  0.2+  0.5-    060325 691  0.6+  0.1-
050926 J77  0.1-  0.0     051008 151  0.1-  0.0     060325 691  0.2+  0.0
050926 J77  0.2-  0.0     051008 A13  0.9-  0.8+    060325 691  0.4+  0.1-
050926 J77  0.3-  0.1-    051008 A13  1.0-  0.4+    060325 G96  0.2-  0.1+
050927 844  2.5-  1.9+    051008 A13  0.9-  0.7+    060325 G96  0.2-  0.1-
050927 844  2.3-  1.4+    051008 A13  0.9-  0.6+    060325 G96  0.0   0.0
050927 844  2.2-  1.5+    051008 A13  1.3-  0.7+    060325 G96  0.0   0.1-

Timothy B. Spahr             (C) Copyright 2006 MPC           M.P.E.C. 2006-O51

Read MPEC 2006-O50 Read MPEC 2006-O52


Our Web policy. Index to the CBAT/MPC/ICQ pages.


Valid HTML 4.01!